Regional Weather Roundup
Issued by NWS

Home | Current Version | Previous Version | Graphics & Text | Print | Product List | Glossary On
Versions: 1 2 3 4 5 6 7 8 9 10 11 12 13 14 15 16 17 18 19 20 21 22 23 24 25 26 27 28 29 30 31 32 33 34 35 36 37 38 39 40 41 42 43 44 45 46 47 48 49 50
000
ASUS43 KIND 041509
RWRIN

WEATHER ROUNDUP FOR INDIANA
NATIONAL WEATHER SERVICE INDIANAPOLIS IN
1100 AM EDT MON MAY 04 2015

NOTE: "FAIR" INDICATES FEW OR NO CLOUDS BELOW 12,000 FEET WITH NO
SIGNIFICANT WEATHER AND/OR OBSTRUCTIONS TO VISIBILITY.

* - STATION DOES NOT REPORT WEATHER SUCH AS PRECIPITATION OR FOG.

+ - STATION NOT QUALITY CONTROLLED BY THE NATIONAL WEATHER SERVICE.
    USE DATA WITH CAUTION...ESPECIALLY DEWPOINT AND RELATIVE
    HUMIDITY OBSERVATIONS.

INZ001>003-010>013-019-020-041600-
NORTHWEST INDIANA

CITY           SKY/WX    TMP DP  RH WIND       PRES   REMARKS
GARY /AIRPORT/ CLOUDY    66 N/A N/A SW7       30.08R
KNOX *+        CLOUDY    61  54  77 SW10      30.08R
LA PORTE +     CLOUDY    65  61  89 SW6       30.09R
MICHIGAN CITY+ CLOUDY    66  54  63 W8        30.09R
MONTICELLO +   LGT RAIN  58  58  99 S7        30.10S
VALPARAISO     CLOUDY    63  59  87 S6        30.09R

$$

LMZ046-743>745-041600-
SOUTHERN LAKE MICHIGAN

STATION/POSITION TIME  TEMP    WIND        PRES    WAVE
                       AIR SEA DIR/SP/G            HT
                 (UTC) (F)     (DEG/KT/KT) (MB)    (FT)
BURNS HARBOR     1500   64     250/  5/ 11 1019.0R
MICHIGAN CITY    1500   62     220/ 14/ 15   N/A
5NW MICH CITY    1500   55 49  250/  4/  6   N/A     1

$$

INZ004-005-014>016-021>024-041600-
NORTH CENTRAL INDIANA

CITY           SKY/WX    TMP DP  RH WIND       PRES   REMARKS
ELKHART        MOSUNNY   63  55  77 SW8       30.08R
GOSHEN         LGT RAIN  61  58  90 SW12      30.09S FOG
LOGANSPORT +   LGT RAIN  59  55  88 S8        30.13S
ROCHESTER +    CLOUDY    63  63 100 S8        30.11S
SOUTH BEND     CLOUDY    63  58  83 SW10      30.09R
WARSAW +       LGT RAIN  59  57  94 SW3       30.10S

$$

INZ006>009-017-018-025>027-041600-
NORTHEAST INDIANA

CITY           SKY/WX    TMP DP  RH WIND       PRES   REMARKS
ANGOLA *+      PTSUNNY   63  54  72 W10       30.09R
AUBURN +       LGT RAIN  61  55  82 SW8       30.12R
FORT WAYNE     LGT RAIN  62  56  80 SW14      30.14R
HUNTINGTON +   LGT RAIN  59  55  87 SW6       30.15R

$$

INZ028-029-035-036-043>045-051>053-041600-
WEST CENTRAL INDIANA

CITY           SKY/WX    TMP DP  RH WIND       PRES   REMARKS
CRAWFORDSVL +  LGT RAIN  56  52  85 S8        30.16S
GREENCASTLE +  LGT RAIN  59  54  82 W3        30.18R
LAFAYETTE      CLOUDY    59  57  93 VRB5      30.12S
TERRE HAUTE    LGT RAIN  61  58  90 CALM      30.16S FOG

$$

INZ030>032-037>040-046>048-054>057-064-065-041600-
CENTRAL INDIANA

CITY           SKY/WX    TMP DP  RH WIND       PRES   REMARKS
ANDERSON       CLOUDY    66  46  48 W6        30.18R
CP ATTERBURY + CLOUDY    72  50  46 SW14G20   30.17R
COLUMBUS       PTSUNNY   68  50  52 SW12      30.17R
FRANKFORT +    LGT RAIN  58  58 100 S7        30.16F
GREENWOOD *+   CLOUDY    70  50  49 W12G18    30.18R
INDIANAPOLIS   LGT RAIN  66  52  60 W16       30.16R
-EAGLE CREEK   CLOUDY    66  51  58 W10       30.17R
KOKOMO *+      CLOUDY    59  57  94 S10       30.13
MARION +       LGT RAIN  59  54  83 W6        30.16S
MT COMFORT *+  CLOUDY    70  39  32 W12       30.18R
SHELBYVILLE    CLOUDY    71  50  47 W13       30.17R
ZIONSVILLE +   RAIN      61  53  74 NW6       30.17S

$$

INZ033-034-041-042-049-050-058-059-041600-
EAST CENTRAL INDIANA

CITY           SKY/WX    TMP DP  RH WIND       PRES   REMARKS
MUNCIE         CLOUDY    68  52  56 W13       30.17R

$$

INZ060-061-067>069-081>083-085>088-041600-
SOUTHWEST INDIANA

CITY           SKY/WX    TMP DP  RH WIND       PRES   REMARKS
EVANSVILLE     PTSUNNY   71  55  56 SW10      30.18R
HUNTINGBURG *+ CLOUDY    70  54  56 SW9       30.19R
WASHINGTON +   PTSUNNY   71  50  48 SW10      30.16R

$$

INZ062-063-066-070>080-084-089>092-041600-
SOUTH CENTRAL AND SOUTHEAST INDIANA

CITY           SKY/WX    TMP DP  RH WIND       PRES   REMARKS
BEDFORD +      PTSUNNY   72  52  49 S7        30.17S
BLOOMINGTON    PTSUNNY   70  50  49 SW10      30.18R
MADISON *+     MOSUNNY   73  48  40 SW12G17   30.21S
NORTH VERNON + PTSUNNY   72  52  49 SW10      30.19R
SEYMOUR +      PTSUNNY   72  54  53 SW12G17   30.18R

$$



USA.gov is the U.S. government's official web portal to all federal, state and local government web resources and services.